Previsão horária em Abadiânia

Hoje, 11 Abril, Domingo

Tempo Temperatura Precipitação Vento Pressão Humidade
00:00 +18°C° 0 mm 1 m/s 676 mmHg 91%
01:00 +16°C° 0 mm 1 m/s 675 mmHg 91%
02:00 +16°C° 0 mm 1 m/s 675 mmHg 91%
03:00 +16°C° 0 mm 1 m/s 675 mmHg 91%
04:00 +16°C° 0 mm 1 m/s 675 mmHg 91%
05:00 +16°C° 0 mm 1 m/s 675 mmHg 90%
06:00 +16°C° 0 mm 1 m/s 675 mmHg 90%
07:00 +18°C° 0 mm 2 m/s 676 mmHg 84%
08:00 +19°C° 0 mm 2 m/s 677 mmHg 77%
09:00 +21°C° 0 mm 3 m/s 678 mmHg 71%
10:00 +23°C° 0 mm 2 m/s 678 mmHg 67%
11:00 +25°C° 0 mm 2 m/s 678 mmHg 63%
12:00 +26°C° 0 mm 2 m/s 678 mmHg 58%
13:00 +26°C° 0 mm 2 m/s 678 mmHg 58%
14:00 +27°C° 0 mm 1 m/s 677 mmHg 58%
15:00 +27°C° 0 mm 1 m/s 677 mmHg 58%
16:00 +25°C° 0.1 mm 1 m/s 676 mmHg 66%
17:00 +24°C° 0.1 mm 1 m/s 676 mmHg 73%
18:00 +22°C° 0.1 mm 1 m/s 676 mmHg 80%
19:00 +21°C° 0 mm 1 m/s 676 mmHg 82%
20:00 +21°C° 0 mm 1 m/s 676 mmHg 84%
21:00 +20°C° 0 mm 1 m/s 677 mmHg 86%
22:00 +20°C° 0 mm 1 m/s 677 mmHg 87%
23:00 +19°C° 0 mm 1 m/s 676 mmHg 88%

Amanhã, 12 Abril, Segunda-feira

Tempo Temperatura Precipitação Vento Pressão Humidade
00:00 +19°C° 0 mm 1 m/s 676 mmHg 89%
01:00 +19°C° 0 mm 1 m/s 676 mmHg 89%
02:00 +19°C° 0 mm 1 m/s 676 mmHg 90%
03:00 +18°C° 0 mm 1 m/s 676 mmHg 90%
04:00 +18°C° 0 mm 1 m/s 676 mmHg 90%
05:00 +18°C° 0 mm 1 m/s 676 mmHg 89%
06:00 +18°C° 0 mm 1 m/s 676 mmHg 89%
07:00 +20°C° 0 mm 1 m/s 677 mmHg 84%
08:00 +20°C° 0 mm 2 m/s 677 mmHg 78%
09:00 +23°C° 0 mm 2 m/s 678 mmHg 73%
10:00 +24°C° 0 mm 2 m/s 678 mmHg 67%
11:00 +26°C° 0 mm 3 m/s 678 mmHg 62%
12:00 +27°C° 0 mm 3 m/s 678 mmHg 56%
13:00 +27°C° 0 mm 2 m/s 678 mmHg 56%
14:00 +27°C° 0 mm 2 m/s 677 mmHg 56%
15:00 +27°C° 0 mm 2 m/s 677 mmHg 56%
16:00 +26°C° 0 mm 2 m/s 677 mmHg 63%
17:00 +24°C° 0 mm 2 m/s 676 mmHg 70%
18:00 +22°C° 0 mm 1 m/s 676 mmHg 78%
19:00 +22°C° 0 mm 1 m/s 677 mmHg 77%
20:00 +21°C° 0 mm 1 m/s 677 mmHg 76%
21:00 +21°C° 0 mm 1 m/s 677 mmHg 76%
22:00 +21°C° 0 mm 1 m/s 677 mmHg 77%
23:00 +20°C° 0 mm 1 m/s 677 mmHg 78%

Depois de amanhã, 13 Abril, Terça-feira

Tempo Temperatura Precipitação Vento Pressão Humidade
00:00 +20°C° 0 mm 1 m/s 677 mmHg 79%
01:00 +19°C° 0 mm 1 m/s 677 mmHg 78%
02:00 +19°C° 0 mm 1 m/s 676 mmHg 78%
03:00 +19°C° 0 mm 1 m/s 676 mmHg 78%
04:00 +19°C° 0 mm 1 m/s 676 mmHg 79%
05:00 +18°C° 0 mm 1 m/s 676 mmHg 79%
06:00 +18°C° 0 mm 1 m/s 676 mmHg 80%
07:00 +20°C° 0 mm 1 m/s 677 mmHg 76%
08:00 +21°C° 0 mm 2 m/s 678 mmHg 71%
09:00 +23°C° 0 mm 2 m/s 679 mmHg 66%
10:00 +25°C° 0 mm 2 m/s 679 mmHg 61%
11:00 +26°C° 0 mm 3 m/s 679 mmHg 56%
12:00 +27°C° 0 mm 3 m/s 679 mmHg 52%
13:00 +27°C° 0 mm 3 m/s 678 mmHg 53%
14:00 +27°C° 0 mm 2 m/s 678 mmHg 54%
15:00 +27°C° 0 mm 2 m/s 677 mmHg 55%
16:00 +26°C° 0 mm 2 m/s 677 mmHg 61%
17:00 +24°C° 0 mm 1 m/s 677 mmHg 67%
18:00 +23°C° 0 mm 1 m/s 676 mmHg 73%
19:00 +22°C° 0 mm 1 m/s 676 mmHg 74%
20:00 +21°C° 0 mm 1 m/s 677 mmHg 75%
21:00 +20°C° 0 mm 1 m/s 677 mmHg 75%
22:00 +20°C° 0 mm 1 m/s 677 mmHg 76%
23:00 +20°C° 0 mm 1 m/s 677 mmHg 76%

14 Abril, Quarta-feira

Tempo Temperatura Precipitação Vento Pressão Humidade
00:00 +17°C° 0 mm 0 m/s 676 mmHg 77%
01:00 +19°C° 0 mm 1 m/s 676 mmHg 76%
02:00 +19°C° 0 mm 1 m/s 676 mmHg 76%
03:00 +19°C° 0 mm 1 m/s 676 mmHg 75%
04:00 +19°C° 0 mm 1 m/s 676 mmHg 74%
05:00 +18°C° 0 mm 1 m/s 676 mmHg 74%
06:00 +18°C° 0 mm 1 m/s 676 mmHg 74%
07:00 +19°C° 0 mm 2 m/s 676 mmHg 70%
08:00 +20°C° 0 mm 2 m/s 677 mmHg 67%
09:00 +23°C° 0 mm 2 m/s 678 mmHg 63%
10:00 +24°C° 0 mm 2 m/s 678 mmHg 60%
11:00 +25°C° 0 mm 3 m/s 678 mmHg 57%
12:00 +27°C° 0 mm 3 m/s 678 mmHg 54%
13:00 +27°C° 0 mm 2 m/s 678 mmHg 55%
14:00 +27°C° 0 mm 2 m/s 677 mmHg 55%
15:00 +28°C° 0 mm 1 m/s 677 mmHg 55%
16:00 +26°C° 0.4 mm 1 m/s 676 mmHg 64%
17:00 +24°C° 0.4 mm 1 m/s 676 mmHg 73%
18:00 +22°C° 0.4 mm 1 m/s 676 mmHg 81%
19:00 +22°C° 0.2 mm 1 m/s 676 mmHg 83%
20:00 +21°C° 0.2 mm 1 m/s 676 mmHg 85%
21:00 +21°C° 0.2 mm 1 m/s 676 mmHg 87%
22:00 +20°C° 0 mm 1 m/s 676 mmHg 88%
23:00 +20°C° 0 mm 1 m/s 676 mmHg 88%

15 Abril, Quinta-feira

Tempo Temperatura Precipitação Vento Pressão Humidade
00:00 +20°C° 0 mm 1 m/s 676 mmHg 89%
01:00 +20°C° 0.1 mm 1 m/s 676 mmHg 90%
02:00 +19°C° 0.1 mm 1 m/s 676 mmHg 90%
03:00 +17°C° 0.1 mm 0 m/s 675 mmHg 91%
04:00 +19°C° 0 mm 1 m/s 676 mmHg 91%
05:00 +19°C° 0 mm 1 m/s 676 mmHg 91%
06:00 +19°C° 0 mm 1 m/s 676 mmHg 91%
07:00 +20°C° 0 mm 1 m/s 677 mmHg 86%
08:00 +21°C° 0 mm 2 m/s 677 mmHg 81%
09:00 +24°C° 0 mm 2 m/s 678 mmHg 76%
10:00 +25°C° 0 mm 2 m/s 678 mmHg 70%
11:00 +26°C° 0 mm 2 m/s 678 mmHg 64%
12:00 +28°C° 0 mm 2 m/s 678 mmHg 58%
13:00 +28°C° 0.2 mm 2 m/s 677 mmHg 58%
14:00 +28°C° 0.2 mm 1 m/s 677 mmHg 58%
15:00 +26°C° 0.2 mm 0 m/s 676 mmHg 57%
16:00 +26°C° 0.4 mm 1 m/s 676 mmHg 65%
17:00 +25°C° 0.4 mm 1 m/s 676 mmHg 72%
18:00 +23°C° 0.4 mm 1 m/s 675 mmHg 79%
19:00 +22°C° 0.4 mm 1 m/s 675 mmHg 82%
20:00 +21°C° 0.4 mm 1 m/s 676 mmHg 85%
21:00 +20°C° 0.4 mm 1 m/s 676 mmHg 88%
22:00 +20°C° 0 mm 1 m/s 676 mmHg 88%
23:00 +20°C° 0 mm 1 m/s 676 mmHg 88%

16 Abril, Sexta-feira

Tempo Temperatura Precipitação Vento Pressão Humidade
00:00 +20°C° 0 mm 1 m/s 676 mmHg 88%
01:00 +20°C° 0 mm 1 m/s 676 mmHg 88%
02:00 +19°C° 0 mm 1 m/s 675 mmHg 88%
03:00 +19°C° 0 mm 1 m/s 675 mmHg 88%
04:00 +19°C° 0 mm 1 m/s 675 mmHg 89%
05:00 +19°C° 0 mm 1 m/s 675 mmHg 90%
06:00 +18°C° 0 mm 1 m/s 676 mmHg 90%
07:00 +19°C° 0 mm 2 m/s 676 mmHg 85%
08:00 +21°C° 0 mm 2 m/s 677 mmHg 80%
09:00 +22°C° 0 mm 3 m/s 678 mmHg 75%
10:00 +25°C° 0 mm 3 m/s 678 mmHg 69%
11:00 +26°C° 0 mm 3 m/s 678 mmHg 63%
12:00 +27°C° 0 mm 2 m/s 678 mmHg 57%
13:00 +28°C° 0 mm 2 m/s 677 mmHg 56%
14:00 +28°C° 0 mm 2 m/s 677 mmHg 54%
15:00 +28°C° 0 mm 1 m/s 676 mmHg 53%
16:00 +27°C° 0.1 mm 1 m/s 676 mmHg 61%
17:00 +25°C° 0.1 mm 1 m/s 676 mmHg 70%
18:00 +23°C° 0.1 mm 1 m/s 675 mmHg 78%
19:00 +22°C° 0 mm 1 m/s 675 mmHg 80%
20:00 +21°C° 0 mm 1 m/s 675 mmHg 82%
21:00 +21°C° 0 mm 1 m/s 675 mmHg 84%
22:00 +20°C° 0 mm 1 m/s 675 mmHg 85%
23:00 +20°C° 0 mm 1 m/s 676 mmHg 86%
Mostrar mais